Terminal Aerodrome Forecast
Issued by NWS

Home | Current Version | Previous Version | Text Only | Print | Product List | Glossary On
Versions: 1 2 3 4 5 6 7 8 9 10 11 12 13 14 15 16 17 18 19 20 21
000
FTUS43 KAPX 040536
TAFMBL
TAF
KMBL 040536Z 0406/0506 00000KT P6SM SCT060
     FM040800 00000KT P6SM -RA BKN050 BKN090
     FM041000 00000KT P6SM SCT050 BKN090
     FM041500 27007KT P6SM BKN050
     FM042000 31009G17KT P6SM SCT050
     FM050100 31005KT P6SM SCT060
      AMD LTD TO CLD VIS AND WIND=

USA.gov is the U.S. government's official web portal to all federal, state and local government web resources and services.